Regional Weather Roundup
Issued by NWS Upton, NY

Current Version | Previous Version | Text Only | Print | Product List | Glossary On
Versions: 1 2 3 4 5 6 7 8 9 10 11 12 13 14 15 16 17 18 19 20 21 22 23 24 25 26 27
000 ASUS41 KOKX 300904 RWROKX REGIONAL WEATHER ROUNDUP NATIONAL WEATHER SERVICE NEW YORK NY 500 AM EDT MON MAY 30 2016 NOTE: "FAIR" INDICATES FEW OR NO CLOUDS BELOW 12,000 FEET WITH NO SIGNIFICANT WEATHER AND/OR OBSTRUCTIONS TO VISIBILITY. NYZ071-072-176-178-NJZ106-104-301000- NEW YORK CITY METRO AREA CITY SKY/WX TMP DP RH WIND PRES REMARKS CENTRAL PARK HVY RAIN 70 68 93 CALM 30.02S FOG LAGUARDIA APRT HVY RAIN 70 70 100 S7 29.98S FOG KENNEDY INTL RAIN 67 66 97 S8 29.99F NEWARK/LIBERTY LGT RAIN 69 68 96 CALM 29.99S BRNX BOT. GARD N/A 68 66 94 S2 30.02R TETERBORO RAIN 70 65 84 CALM 29.98R FOG $$ NYZ177-179-078>081-301000- LONG ISLAND NEW YORK CITY SKY/WX TMP DP RH WIND PRES REMARKS FARMINGDALE LGT RAIN 68 67 96 W10 30.01R FOG ISLIP CLOUDY 68 67 96 SW7 30.00S SHIRLEY FOG 67 66 97 S12G18 30.01F VSB 3/4 RIVERHEAD N/A 68 66 94 CALM 29.99F WESTHAMPTON FOG 66 65 96 S9 30.02F VSB 1 EAST HAMPTON CLOUDY 64 63 98 CALM 30.01F FOG MONTAUK POINT N/A 62 62 100 VRB6 30.03F $$ NYZ052-065-067-301000- HUDSON VALLEY CITY SKY/WX TMP DP RH WIND PRES REMARKS WHITE PLAINS RAIN 68 67 96 S5 30.00S NEWBURGH DRIZZLE 64 63 94 CALM 30.01S MONTGOMERY LGT RAIN 66 63 90 SW5 30.01R POUGHKEEPSIE CLOUDY 69 64 84 S3 29.98F ALBANY CLOUDY 69 66 90 S10 29.97F $$ NJZ001-105-106-008-010-013-015-019>022-104-301000- NEW JERSEY CITY SKY/WX TMP DP RH WIND PRES REMARKS NEWARK/LIBERTY LGT RAIN 69 68 96 CALM 29.99S TETERBORO RAIN 70 65 84 CALM 29.98R FOG CALDWELL LGT RAIN 68 65 90 CALM 30.00S FOG MORRISTOWN RAIN 68 66 94 CALM 30.00S SOMERVILLE LGT RAIN 66 64 93 CALM 29.98S FOG SUSSEX LGT RAIN 64 62 93 CALM 30.01S ANDOVER N/A 65 63 93 CALM 30.01F TRENTON LGT RAIN 67 65 93 N5 29.98S MILLVILLE CLOUDY 72 70 93 VRB6 30.00S ATLANTIC CITY CLOUDY 71 70 96 S7 29.99F WRIGHTSTOWN CLOUDY 72 71 97 SW9 29.96S TOMS RIVER CLOUDY 72 68 88 SW12 30.00R BELMAR CLOUDY 72 71 97 S7 30.01S $$ PAZ047>061-062-071-301000- EASTERN PENNSYLVANIA CITY SKY/WX TMP DP RH WIND PRES REMARKS PHILADELPHIA CLOUDY 71 69 93 CALM 30.00R ALLENTOWN RAIN 66 64 94 NE5 30.00F FOG SCRANTON LGT RAIN 63 60 90 CALM 30.01F $$ CTZ002-004>006-009-010-012-RIZ004-006-007-MAZ004-011-015-301000- SOUTHERN NEW ENGLAND IN CT CITY SKY/WX TMP DP RH WIND PRES REMARKS BRADLEY INTL LGT RAIN 63 61 93 CALM 30.00F HARTFORD LGT RAIN 70 67 90 SE5 30.00S DANBURY LGT RAIN 66 64 93 CALM 30.01S WTRBRY/OXFORD N/A 64 61 88 CALM 30.02S BRIDGEPORT RAIN 65 63 93 E8 30.00S FOG MERIDEN LGT RAIN 68 66 93 CALM 30.00F NEW HAVEN CLOUDY 65 65 100 SE3 30.00F CHESTER DRIZZLE 64 64 100 CALM 30.01F GROTON LGT RAIN 62 62 100 E12 30.00F VSB 1 WILLIMANTIC HVY RAIN 64 61 90 CALM 30.03S FOG IN RI CITY SKY/WX TMP DP RH WIND PRES REMARKS PROVIDENCE CLOUDY 57 56 96 NE5 30.04F BLOCK ISLAND LGT RAIN 63 63 100 S9 30.03F VSB 1/2 WESTERLY FOG 63 60 90 E5 30.02F VSB 1/2 IN MA CITY SKY/WX TMP DP RH WIND PRES REMARKS BOSTON LGT RAIN 54 52 93 SE5 30.05F WORCESTER RAIN 53 53 100 CALM 30.04F VSB 1/4 WESTFIELD LGT RAIN 61 59 93 N3 30.01S PROVINCETOWN CLOUDY 54 53 97 E3 30.06F FOG NANTUCKET LGT RAIN 61 60 97 S8 30.05F VSB 1/4 $$ ANZ330-335-338-340-345-350-353-355-301000- COASTAL MARINE OBSERVATIONS STATION/POSITION TIME SKY/WX TEMP WIND PRES VSBY WAVE AIR SEA DIR/SP/G HT/PER (UTC) (F) (DEG/KT/KT) (MB) (MI) (FT/S) NY HARB ENTRANCE 0750 60 59 230/ 6/ 8 1015.6 2/ 8 20S FIRE ISLAND 0750 63 61 180/ 14/ 14 1015.6 3/ 8 GREAT SOUTH BAY 0800 65 71 200/ 10/ 12 N/A 23 SSW MONTAUK P 0850 61 59 190/ 12/ 14 1016.1 3/ 8 15 E BARNEGAT LI 0822 61 N/A 3/ 8 HUDSON CANYON 0750 63 59 1017.2 3/ 8 KINGS POINT 0800 67 59 1015.3 EXECUTION ROCKS NOT AVBL CENTRAL LI SOUND 0800 65 170/ 4/ 6 N/A 1 EASTERN LI SOUND 0800 58 54 80/ 8/ 10 N/A ROBBINS REEF 0800 68 200/ 2/ 3 1014.9 $$ >>>>>>>>>>>>>>>>>>>>>>>>>>>> KEY <<<<<<<<<<<<<<<<<<<<<<<<<<< > < > SKY/WX - SKY CONDITION/PRESENT WEATHER < > TMP - TEMPERATURE IN FAHRENHEIT < > DP - DEWPOINT IN FAHRENHEIT < > RH - RELATIVE HUMIDITY IN PERCENT < > WIND - DIRECTION AND SPEED IN MPH < > PRES - MEAN SEA LEVEL PRESSURE IN INCHES OF HG < > WCI - WIND CHILL INDEX < > VSB - VISIBILITY IN MILES < > HX - HEAT INDEX < > TC - TEMPERATURE IN CELSIUS < > VRB - VARIABLE WIND DIRECTION < > < >>>>>>>>>>>>>>>>>>>>>>>>>>>> KEY <<<<<<<<<<<<<<<<<<<<<<<<<<<

USA.gov is the U.S. government's official web portal to all federal, state and local government web resources and services.